Home   Weather   Jørpeland   Past weeks

Flag for Norway Past Weather in Jørpeland, Norway — Yesterday and Last 2 Weeks

Now
43 °F

Drizzle. Fog.


Feels Like: 38 °F
Forecast: 39 / 40 °F
Wind: 8 mph from South

Location: Stavanger / Sola

Current Time: Jan 18, 2017 at 9:10:55 am

Latest Report: Jan 18, 2017 at 8:20 am


Visibility: 3 mi

Pressure: 30.42 "Hg

Humidity: 100%

Dew Point: 43 °F

Location of JørpelandLocation

Past Weather in Jørpeland — Graph

°F

Jørpeland Temperature Yesterday

Maximum temperature yesterday: 41 °F (at 3:50 pm)
Minimum temperature yesterday: 32 °F (at 12:50 am)
Average temperature yesterday: 38 °F

High & Low Weather Summary for the Past Weeks

 TemperatureHumidityPressure
High45 °F (Jan 3, 8:20 am)100% (Jan 3, 7:20 am)30.63 "Hg (Jan 3, 7:20 am)
Low16 °F (Jan 16, 4:50 am)46% (Jan 5, 7:20 pm)28.53 "Hg (Jan 11, 9:20 am)
Average36 °F81%29.84 "Hg
* Reported Jan 3 7:20 am — Jan 18 7:50 am, Jørpeland, Weather by CustomWeather, © 2017

Note: Actual official high and low records may vary slightly from our data, if they occured in-between our weather recording intervals... More about our weather records

Advertising

Jørpeland Weather History for the Previous 24 Hours

Scroll right to see more
 ConditionsComfort  
Time TempWeatherWind HumidityBarometerVisibility
7:50 am
Wed, Jan 18
43 °FDrizzle. Low clouds.9 mph100%30.39 "HgN/A
7:20 am43 °FLow clouds.10 mph93%30.39 "Hg6 mi
6:50 am41 °FDrizzle. Low clouds.12 mph100%30.39 "Hg4 mi
6:20 am41 °FDrizzle. Fog.10 mph100%30.39 "Hg1 mi
5:50 am41 °FDrizzle. Fog.7 mph100%30.42 "Hg1 mi
4:50 am41 °FFog.7 mph100%30.42 "Hg1 mi
3:50 am41 °FFog.6 mph100%30.42 "Hg1 mi
2:50 am41 °FFog.6 mph100%30.42 "Hg1 mi
1:50 am41 °FDrizzle. Fog.8 mph93%30.42 "Hg1 mi
12:50 am41 °FFog.7 mph100%30.42 "Hg1 mi
12:20 am41 °FFog.7 mph93%30.45 "Hg1 mi
11:50 pm
Tue, Jan 17
41 °FDrizzle. Fog.7 mph93%30.42 "Hg1 mi
11:20 pm41 °FDrizzle. Dense fog.7 mph100%30.45 "Hg1 mi
10:50 pm41 °FDrizzle. Fog.7 mph100%30.45 "Hg1 mi
10:20 pm41 °FDrizzle. Fog.5 mph100%30.45 "Hg1 mi
9:50 pm41 °FDrizzle. Fog.8 mph100%30.42 "Hg1 mi
9:20 pm41 °FDrizzle. Fog.9 mph100%30.42 "Hg2 mi
8:50 pm41 °FDrizzle. Fog.9 mph100%30.42 "Hg2 mi
8:20 pm41 °FDrizzle. Fog.10 mph100%30.42 "Hg2 mi
7:50 pm41 °FDrizzle. Fog.9 mph100%30.42 "Hg2 mi
7:20 pm41 °FDrizzle. Fog.8 mph100%30.42 "Hg2 mi
6:50 pm41 °FDrizzle. Fog.7 mph100%30.42 "Hg2 mi
6:20 pm41 °FDrizzle. Fog.8 mph93%30.42 "Hg2 mi
5:50 pm39 °FDrizzle. Fog.8 mph100%30.42 "Hg2 mi
5:20 pm41 °FDrizzle. Fog.8 mph93%30.42 "Hg2 mi
4:50 pm41 °FDrizzle. Fog.10 mph93%30.42 "Hg2 mi
4:20 pm41 °FDrizzle. Fog.10 mph93%30.42 "Hg2 mi
3:50 pm41 °FDrizzle. Fog.10 mph93%30.42 "Hg2 mi
3:20 pm39 °FDrizzle. Fog.12 mph100%30.42 "Hg2 mi
2:50 pm39 °FDrizzle. Low clouds.12 mph100%30.42 "Hg2 mi
2:20 pm39 °FDrizzle. Fog.10 mph93%30.42 "Hg2 mi
1:50 pm39 °FDrizzle. Fog.12 mph93%30.42 "Hg2 mi
1:20 pm39 °FFog.12 mph93%30.42 "Hg2 mi
12:50 pm37 °FFog.12 mph100%30.45 "Hg2 mi
12:20 pm37 °FFog.10 mph93%30.45 "Hg2 mi
11:50 am37 °FFog.12 mph93%30.45 "Hg2 mi
11:20 am37 °FFog.10 mph93%30.45 "Hg2 mi
10:50 am36 °FDrizzle. Fog.10 mph100%30.45 "Hg2 mi
10:20 am36 °FDrizzle. Fog.10 mph100%30.45 "Hg2 mi
9:50 am36 °FDrizzle. Dense fog.9 mph93%30.45 "Hg2 mi
9:20 am36 °FDrizzle. Fog.9 mph93%30.45 "Hg2 mi
Weather by CustomWeather, © 2017

See weather overviewHow to use our weather pages